Time,TemperatureF,DewpointF,PressureIn,WindDirection,WindDirectionDegrees,WindSpeedMPH,WindSpeedGustMPH,Humidity,HourlyPrecipIn,Conditions,Clouds,dailyrainin,SoftwareType,DateUTC
2016-12-09 00:13:00,53.0,53.0,-100.00,South,189,6.0,8.0,100,-99.99,,,-99.99,,2016-12-09 08:13:00,
2016-12-09 00:23:00,53.0,53.0,-100.00,South,189,6.0,8.0,100,-99.99,,,-99.99,,2016-12-09 08:23:00,
2016-12-09 00:33:00,53.0,53.0,-100.00,South,191,5.0,8.0,100,-99.99,,,-99.99,,2016-12-09 08:33:00,
2016-12-09 00:57:00,53.0,53.0,-100.00,South,191,5.0,8.0,100,-99.99,,,-99.99,,2016-12-09 08:57:00,
2016-12-09 01:04:00,53.0,53.0,-100.00,South,191,5.0,8.0,100,-99.99,,,-99.99,,2016-12-09 09:04:00,
2016-12-09 01:14:00,53.0,53.0,-100.00,South,191,5.0,8.0,100,-99.99,,,-99.99,,2016-12-09 09:14:00,
2016-12-09 01:23:00,53.0,53.0,-100.00,South,191,5.0,8.0,100,-99.99,,,-99.99,,2016-12-09 09:23:00,
2016-12-09 01:54:00,53.0,53.0,-100.00,South,191,6.0,10.0,100,-99.99,,,-99.99,,2016-12-09 09:54:00,
2016-12-09 02:03:00,53.0,53.0,-100.00,South,191,6.0,10.0,100,-99.99,,,-99.99,,2016-12-09 10:03:00,
2016-12-09 02:12:00,53.0,53.0,-100.00,South,191,6.0,10.0,100,-99.99,,,-99.99,,2016-12-09 10:12:00,
2016-12-09 02:23:00,53.0,53.0,-100.00,South,191,6.0,10.0,100,-99.99,,,-99.99,,2016-12-09 10:23:00,
2016-12-09 02:33:00,53.0,53.0,-100.00,SSW,211,4.0,9.0,100,-99.99,,,-99.99,,2016-12-09 10:33:00,
2016-12-09 02:54:00,53.0,53.0,-100.00,SSW,211,4.0,9.0,100,-99.99,,,-99.99,,2016-12-09 10:54:00,
2016-12-09 03:03:00,53.0,53.0,-100.00,SSW,211,4.0,9.0,100,-99.99,,,-99.99,,2016-12-09 11:03:00,
2016-12-09 03:12:00,53.0,53.0,-100.00,SSW,211,4.0,9.0,100,-99.99,,,-99.99,,2016-12-09 11:12:00,
2016-12-09 03:23:00,53.0,53.0,-100.00,SSW,211,4.0,9.0,100,-99.99,,,-99.99,,2016-12-09 11:23:00,
2016-12-09 03:33:00,54.0,54.0,-100.00,SW,221,3.0,8.0,100,-99.99,,,-99.99,,2016-12-09 11:33:00,
2016-12-09 03:58:00,54.0,54.0,-100.00,SW,221,3.0,8.0,100,-99.99,,,-99.99,,2016-12-09 11:58:00,
2016-12-09 04:04:00,54.0,54.0,-100.00,SW,221,3.0,8.0,100,-99.99,,,-99.99,,2016-12-09 12:04:00,
2016-12-09 04:13:00,54.0,54.0,-100.00,SW,221,3.0,8.0,100,-99.99,,,-99.99,,2016-12-09 12:13:00,
2016-12-09 04:23:00,54.0,54.0,-100.00,SW,221,3.0,8.0,100,-99.99,,,-99.99,,2016-12-09 12:23:00,
2016-12-09 04:33:00,54.0,54.0,-100.00,South,186,6.0,9.0,100,-99.99,,,-99.99,,2016-12-09 12:33:00,
2016-12-09 04:57:00,54.0,54.0,-100.00,South,186,6.0,9.0,100,-99.99,,,-99.99,,2016-12-09 12:57:00,
2016-12-09 05:04:00,54.0,54.0,-100.00,South,186,6.0,9.0,100,-99.99,,,-99.99,,2016-12-09 13:04:00,
2016-12-09 05:13:00,54.0,54.0,-100.00,South,186,6.0,9.0,100,-99.99,,,-99.99,,2016-12-09 13:13:00,
2016-12-09 05:23:00,54.0,54.0,-100.00,South,186,6.0,9.0,100,-99.99,,,-99.99,,2016-12-09 13:23:00,
2016-12-09 05:33:00,54.0,54.0,-100.00,South,183,7.0,10.0,100,-99.99,,,-99.99,,2016-12-09 13:33:00,
2016-12-09 06:03:00,54.0,54.0,-100.00,South,183,7.0,10.0,100,-99.99,,,-99.99,,2016-12-09 14:03:00,
2016-12-09 06:16:00,54.0,54.0,-100.00,South,183,7.0,10.0,100,-99.99,,,-99.99,,2016-12-09 14:16:00,
2016-12-09 06:26:00,54.0,54.0,-100.00,South,183,7.0,10.0,100,-99.99,,,-99.99,,2016-12-09 14:26:00,
2016-12-09 06:33:00,54.0,54.0,-100.00,South,189,4.0,10.0,100,-99.99,,,-99.99,,2016-12-09 14:33:00,
2016-12-09 06:57:00,54.0,54.0,-100.00,South,189,4.0,10.0,100,-99.99,,,-99.99,,2016-12-09 14:57:00,
2016-12-09 07:05:00,54.0,54.0,-100.00,South,189,4.0,10.0,100,-99.99,,,-99.99,,2016-12-09 15:05:00,
2016-12-09 07:13:00,54.0,54.0,-100.00,South,189,4.0,10.0,100,-99.99,,,-99.99,,2016-12-09 15:13:00,
2016-12-09 07:23:00,54.0,54.0,-100.00,South,189,4.0,10.0,100,-99.99,,,-99.99,,2016-12-09 15:23:00,
2016-12-09 07:54:00,54.0,54.0,-100.00,SSE,148,4.0,7.0,100,-99.99,,,-99.99,,2016-12-09 15:54:00,
2016-12-09 08:03:00,54.0,54.0,-100.00,SSE,148,4.0,7.0,100,-99.99,,,-99.99,,2016-12-09 16:03:00,
2016-12-09 08:12:00,54.0,54.0,-100.00,SSE,148,4.0,7.0,100,-99.99,,,-99.99,,2016-12-09 16:12:00,
2016-12-09 08:23:00,54.0,54.0,-100.00,SSE,148,4.0,7.0,100,-99.99,,,-99.99,,2016-12-09 16:23:00,
2016-12-09 08:33:00,54.0,54.0,-100.00,South,184,7.0,9.0,100,-99.99,,,-99.99,,2016-12-09 16:33:00,
2016-12-09 09:04:00,54.0,54.0,-100.00,South,184,7.0,9.0,100,-99.99,,,-99.99,,2016-12-09 17:04:00,
2016-12-09 09:12:00,54.0,54.0,-100.00,South,184,7.0,9.0,100,-99.99,,,-99.99,,2016-12-09 17:12:00,
2016-12-09 09:23:00,54.0,54.0,-100.00,South,184,7.0,9.0,100,-99.99,,,-99.99,,2016-12-09 17:23:00,
2016-12-09 09:33:00,56.0,56.0,-100.00,WSW,244,5.0,7.0,100,-99.99,,,-99.99,,2016-12-09 17:33:00,
2016-12-09 09:58:00,56.0,56.0,-100.00,WSW,244,5.0,7.0,100,-99.99,,,-99.99,,2016-12-09 17:58:00,
2016-12-09 10:04:00,56.0,56.0,-100.00,WSW,244,5.0,7.0,100,-99.99,,,-99.99,,2016-12-09 18:04:00,
2016-12-09 10:13:00,56.0,56.0,-100.00,WSW,244,5.0,7.0,100,-99.99,,,-99.99,,2016-12-09 18:13:00,
2016-12-09 10:24:00,56.0,56.0,-100.00,WSW,244,5.0,-999.0,100,-99.99,,,-99.99,,2016-12-09 18:24:00,
2016-12-09 10:33:00,56.0,56.0,-100.00,SW,233,5.0,11.0,100,-99.99,,,-99.99,,2016-12-09 18:33:00,
2016-12-09 10:55:00,56.0,56.0,-100.00,SW,233,5.0,11.0,100,-99.99,,,-99.99,,2016-12-09 18:55:00,
2016-12-09 11:05:00,56.0,56.0,-100.00,SW,233,5.0,11.0,100,-99.99,,,-99.99,,2016-12-09 19:05:00,
2016-12-09 11:13:00,56.0,56.0,-100.00,SW,233,5.0,11.0,100,-99.99,,,-99.99,,2016-12-09 19:13:00,
2016-12-09 11:23:00,56.0,56.0,-100.00,SW,233,5.0,11.0,100,-99.99,,,-99.99,,2016-12-09 19:23:00,
2016-12-09 11:33:00,57.0,57.0,-100.00,WSW,241,7.0,14.0,100,-99.99,,,-99.99,,2016-12-09 19:33:00,
2016-12-09 11:58:00,57.0,57.0,-100.00,WSW,241,7.0,14.0,100,-99.99,,,-99.99,,2016-12-09 19:58:00,
2016-12-09 12:05:00,57.0,57.0,-100.00,WSW,241,7.0,14.0,100,-99.99,,,-99.99,,2016-12-09 20:05:00,
2016-12-09 12:13:00,57.0,57.0,-100.00,WSW,241,7.0,14.0,100,-99.99,,,-99.99,,2016-12-09 20:13:00,
2016-12-09 12:23:00,57.0,57.0,-100.00,WSW,241,7.0,14.0,100,-99.99,,,-99.99,,2016-12-09 20:23:00,
2016-12-09 12:33:00,56.0,56.0,-100.00,WSW,247,8.0,12.0,100,-99.99,,,-99.99,,2016-12-09 20:33:00,
2016-12-09 12:57:00,56.0,56.0,-100.00,WSW,247,8.0,12.0,100,-99.99,,,-99.99,,2016-12-09 20:57:00,
2016-12-09 13:03:00,56.0,56.0,-100.00,WSW,247,8.0,12.0,100,-99.99,,,-99.99,,2016-12-09 21:03:00,
2016-12-09 13:13:00,56.0,56.0,-100.00,WSW,247,8.0,12.0,100,-99.99,,,-99.99,,2016-12-09 21:13:00,
2016-12-09 13:23:00,56.0,56.0,-100.00,WSW,247,8.0,12.0,100,-99.99,,,-99.99,,2016-12-09 21:23:00,
2016-12-09 13:33:00,56.0,56.0,-100.00,SW,232,5.0,16.0,100,-99.99,,,-99.99,,2016-12-09 21:33:00,
2016-12-09 13:54:00,56.0,56.0,-100.00,SW,232,5.0,16.0,100,-99.99,,,-99.99,,2016-12-09 21:54:00,
2016-12-09 14:03:00,56.0,56.0,-100.00,SW,232,5.0,16.0,100,-99.99,,,-99.99,,2016-12-09 22:03:00,
2016-12-09 14:13:00,56.0,56.0,-100.00,SW,232,5.0,16.0,100,-99.99,,,-99.99,,2016-12-09 22:13:00,
2016-12-09 14:23:00,56.0,56.0,-100.00,SW,232,5.0,-999.0,100,-99.99,,,-99.99,,2016-12-09 22:23:00,
2016-12-09 14:33:00,56.0,56.0,-100.00,SW,234,4.0,9.0,100,-99.99,,,-99.99,,2016-12-09 22:33:00,
2016-12-09 14:54:00,56.0,56.0,-100.00,SW,234,4.0,9.0,100,-99.99,,,-99.99,,2016-12-09 22:54:00,
2016-12-09 15:03:00,56.0,56.0,-100.00,SW,234,4.0,9.0,100,-99.99,,,-99.99,,2016-12-09 23:03:00,
2016-12-09 15:12:00,56.0,56.0,-100.00,SW,234,4.0,9.0,100,-99.99,,,-99.99,,2016-12-09 23:12:00,
2016-12-09 15:23:00,56.0,56.0,-100.00,SW,234,4.0,9.0,100,-99.99,,,-99.99,,2016-12-09 23:23:00,
2016-12-09 15:58:00,55.0,55.0,-100.00,SSW,209,4.0,6.0,100,-99.99,,,-99.99,,2016-12-09 23:58:00,
2016-12-09 16:05:00,55.0,55.0,-100.00,SSW,209,4.0,6.0,100,-99.99,,,-99.99,,2016-12-10 00:05:00,
2016-12-09 16:13:00,55.0,55.0,-100.00,SSW,209,4.0,6.0,100,-99.99,,,-99.99,,2016-12-10 00:13:00,
2016-12-09 16:23:00,55.0,55.0,-100.00,SSW,209,4.0,6.0,100,-99.99,,,-99.99,,2016-12-10 00:23:00,
2016-12-09 16:33:00,54.0,54.0,-100.00,West,259,4.0,7.0,100,-99.99,,,-99.99,,2016-12-10 00:33:00,
2016-12-09 16:58:00,54.0,54.0,-100.00,West,259,4.0,7.0,100,-99.99,,,-99.99,,2016-12-10 00:58:00,
2016-12-09 17:03:00,54.0,54.0,-100.00,West,259,4.0,7.0,100,-99.99,,,-99.99,,2016-12-10 01:03:00,
2016-12-09 17:13:00,54.0,54.0,-100.00,West,259,4.0,7.0,100,-99.99,,,-99.99,,2016-12-10 01:13:00,
2016-12-09 17:23:00,54.0,54.0,-100.00,West,259,4.0,7.0,100,-99.99,,,-99.99,,2016-12-10 01:23:00,
2016-12-09 17:33:00,54.0,54.0,-100.00,NW,308,5.0,7.0,100,-99.99,,,-99.99,,2016-12-10 01:33:00,
2016-12-09 17:58:00,54.0,54.0,-100.00,NW,308,5.0,7.0,100,-99.99,,,-99.99,,2016-12-10 01:58:00,
2016-12-09 18:03:00,54.0,54.0,-100.00,NW,308,5.0,7.0,100,-99.99,,,-99.99,,2016-12-10 02:03:00,
2016-12-09 18:13:00,54.0,54.0,-100.00,NW,308,5.0,7.0,100,-99.99,,,-99.99,,2016-12-10 02:13:00,
2016-12-09 18:23:00,54.0,54.0,-100.00,NW,308,5.0,7.0,100,-99.99,,,-99.99,,2016-12-10 02:23:00,
2016-12-09 18:33:00,54.0,54.0,-100.00,West,269,2.0,8.0,100,-99.99,,,-99.99,,2016-12-10 02:33:00,
2016-12-09 19:00:00,54.0,54.0,-100.00,West,269,2.0,8.0,100,-99.99,,,-99.99,,2016-12-10 03:00:00,
2016-12-09 19:14:00,54.0,54.0,-100.00,West,269,2.0,8.0,100,-99.99,,,-99.99,,2016-12-10 03:14:00,
2016-12-09 19:23:00,54.0,54.0,-100.00,West,269,2.0,8.0,100,-99.99,,,-99.99,,2016-12-10 03:23:00,
2016-12-09 19:54:00,55.0,55.0,-100.00,South,185,12.0,17.0,100,-99.99,,,-99.99,,2016-12-10 03:54:00,
2016-12-09 20:12:00,55.0,55.0,-100.00,North,-9999,-999.9,-999.0,100,-99.99,,,-99.99,,2016-12-10 04:12:00,
2016-12-09 20:23:00,55.0,55.0,-100.00,South,185,12.0,17.0,100,-99.99,,,-99.99,,2016-12-10 04:23:00,